Showing default

GEMS2-AMETHYST, 68505

Orbit data source: Space-Track

GEMS2-AMETHYST, 68505 is an American payload satellite in SSO that was launched on Mon, 30 Mar 2026 UTC via an FALCON 9 launch vehicle from the Air Force Western Test Range (AFWTR). Payload-class satellites include a variety of spacecraft equipped with specific instruments for various scientific and technological missions. These include communications satellites like Starlink; space stations such as the ISS; scientific satellites like the Hubble; Earth observation satellites from companies like Planet Labs, Umbra, and HawkEye 360; GPS; miniature CubeSats for education and research; and military/defense satellites.

Loading next visibility...
Identifier
68505, 2026-067CT
Orbit
SSO
Country
Flag of USUS
Related business
Manufacturer
OMS
Mission
Operational Commercial Weather
Bus & Motor
CUBESAT 6U, Unknown motor
Mass
10 kg wet, ~10 kg dry
Launch date (UTC)
2026-03-30 (6 months ago)
Launch vehicle
FALCON 9
Launch site
Air Force Western Test Range (AFWTR)
Object type
Payload
Rocket body
Debris
Shape & HBR
Box, 2.0 m
Radar Cross Section
0.080 m², Medium (>0.1 m² and < 1m²)

Expand to show TLE details & history
Last TLE update: 11 hours ago

TLE from 11 hours ago
0 GEMS2-AMETHYST
1 68505U 26067CT  26263.16288634  .00003279  00000-0  33099-3 0  9990
2 68505  97.7704 219.8521 0007006  88.5534 271.6487 14.91743714 25872
Epoch: 2026-09-20T03:54Z
TLE epoch observation values (Epoch: 2026-09-20T03:54:33.379Z)
Latitude
-0.00007°
Longitude
162.15201°
Altitude
595.403 km
Speed
7.562 km/s
True Right ascension
14h 39m 24s
True Declination
0° 00' 00"
Sunlit
Object was in daylight at epoch
Visualization orbit readout
Latitude
Unknown
Longitude
Unknown
Altitude
Unknown
Speed
Unknown
Apparent Right ascension
Unknown
Apparent Declination
Unknown
Sunlit
N/A
Visualization observer readout
Local Sidereal Time
07:42:42
Azimuth
Unknown
Elevation
Unknown
Doppler factor
Unknown
Orbital elements
Apogee altitude
594.399 km
Perigee altitude
584.636 km
Semi-major axis
6,967.655 km
Eccentricity
0.0007
Inclination
97.7704°
RAAN
219.8521°
Arg. of periapsis
88.5534°
True anomaly
271.56845°
Mean anomaly
271.6487°
Eccentric anomaly
271.60857°
Mean motion
3.73176 °/min
Orbital period
96.47 mins
BSTAR
0.00033099
Loading maneuver chart data...
Computing Atmospheric mass density...
Loading historical data...
Loading historical data...
Loading historical data...
Loading historical data...
Loading historical data...
Loading historical data...
Loading historical data...

Documentation

Showing up to 5 results
|